Tracking 28125 objects as of 3-Oct-2023
HD Live streaming from Space Station
objects crossing your sky now

STARLINK-3834

Track STARLINK-3834 now!
10-day predictions
STARLINK-3834 is classified as:


NORAD ID: 52368
Int'l Code: 2022-045AP
Perigee: 546.0 km
Apogee: 547.8 km
Inclination: 53.2 °
Period: 95.4 minutes
Semi major axis: 6917 km
RCS: Unknown
Launch date: April 29, 2022
Source: United States (US)
Launch site: AIR FORCE EASTERN TEST RANGE (AFETR)
Your satellite tracking list
Your tracking list is empty




NASA's NSSDC Master Catalog

Two Line Element Set (TLE):
1 52368U 22045AP  23276.15288814  .00002829  00000-0  19578-3 0  9998
2 52368  53.2171 217.9172 0001273  99.6751 260.4385 15.08841836 81779
Source of the keplerian elements: AFSPC